Vorticity
22 11 2 13 7 5 14 14 13 12 7 7 5 6 4 10 4 4 9 7 6 11 10 9 10 16 6 3 3 8 8 9 7 8 8 14 2 9 8 11 10 8 17 8 9 13 5 6 6 7 9 4 9 9
10 15 10 1 18 9 19 14 16 13 6 6 3 4 8 5 7 5 6 8 9 6 9 9 15 12 18 -9 -4 6 7 7 10 7 8 9 7 8 5 2 6 4 15 11 8 9 6 7 10 7 6 4 10 9
9 13 13 7 19 10 26 12 13 4 5 6 5 2 8 8 6 7 6 6 8 11 10 5 18 21 7 7 16 6 13 3 13 14 9 11 5 9 9 8 4 8 5 12 14 4 7 7 10 9 5 5 8 8
15 10 18 18 16 10 17 10 15 2 -0 5 6 4 8 7 13 3 5 7 6 7 8 7 10 12 32 2 6 7 18 20 13 10 11 10 9 10 10 7 6 8 6 9 14 7 -0 3 2 4 4 4 6 8
19 17 18 16 13 15 11 8 12 10 4 6 4 7 3 14 4 9 6 6 8 15 30 49 50 45 27 16 5 16 15 15 11 13 13 10 8 11 13 9 12 7 5 7 13 12 1 3 7 7 5 8 6 7
21 18 19 18 14 15 13 15 12 6 5 4 7 6 14 5 9 5 6 13 43 60 66 66 55 44 25 18 9 16 9 12 -17 26 4 7 11 6 4 3 11 7 10 16 10 12 14 11 9 7 11 12 9 7
26 27 20 27 24 23 15 8 7 3 5 7 7 9 10 8 5 10 23 60 71 75 67 26 43 30 10 6 7 11 12 11 4 -2 5 5 4 7 10 9 5 13 14 18 13 9 9 8 11 10 10 11 9 8
10 14 12 19 17 15 19 15 5 6 14 8 5 12 7 3 8 35 94 83 52 19 -15 18 12 22 10 9 4 10 4 4 11 11 6 5 8 11 6 9 12 13 17 13 7 11 12 11 12 9 10 9 10 11
8 5 8 3 5 15 12 3 4 10 13 13 13 8 3 5 32 73 -3 -9 17 15 5 -7 21 20 7 2 9 14 9 6 15 11 12 9 6 6 10 8 11 16 18 12 12 13 15 14 13 11 11 10 10 17
10 6 5 5 -1 8 6 5 5 11 10 9 12 8 4 11 69 11 -1 12 19 30 19 22 11 8 0 -1 4 15 11 6 -2 5 17 12 10 10 13 12 13 15 17 18 17 20 13 9 10 13 16 15 6 17
10 11 11 -3 8 -1 13 3 4 6 11 13 7 10 8 24 62 1 6 -6 -11 -3 -1 22 12 6 9 3 15 17 11 8 10 11 19 13 11 9 11 11 20 13 18 19 6 7 9 8 15 12 5 11 10 18
8 7 14 14 15 11 32 -1 2 -0 5 14 10 8 13 25 12 -1 -3 9 11 6 9 15 15 18 18 9 14 7 29 34 17 25 17 11 7 7 10 8 17 24 11 18 7 3 10 6 7 11 12 12 10 8
11 19 15 1 7 9 6 8 6 2 14 10 19 12 11 4 29 -13 -1 6 12 4 3 11 12 1 2 5 2 4 6 8 11 13 19 16 11 8 9 10 7 19 28 8 14 12 9 8 6 7 14 19 15 18
18 16 15 14 9 8 5 8 4 6 12 12 21 12 8 23 30 3 -6 2 2 6 2 1 2 12 16 16 6 -3 3 7 3 10 20 18 16 11 11 8 7 12 15 41 23 20 3 10 10 7 17 18 16 12
9 15 14 16 11 11 11 19 16 17 9 10 20 13 9 20 21 19 -7 -4 3 8 6 5 3 3 8 11 -1 -5 5 10 3 11 10 12 14 16 14 9 7 6 11 9 31 15 6 10 13 18 15 26 28 16
11 19 20 23 12 16 13 16 23 12 9 12 14 15 9 10 22 16 7 4 4 3 3 6 7 4 11 11 4 2 13 7 5 3 6 8 8 11 11 12 12 9 7 7 12 14 21 6 7 22 16 22 14 -4
10 14 18 27 18 6 12 10 15 15 12 6 20 13 26 3 9 19 21 12 4 6 5 4 11 10 6 6 11 13 10 12 9 8 5 5 5 3 3 6 10 13 12 9 9 8 10 6 28 26 7 -1 13 9
12 12 11 11 19 16 8 11 9 18 18 20 21 15 18 6 5 9 21 19 10 4 4 5 7 8 9 6 2 6 6 4 4 5 5 2 0 1 3 0 -0 1 2 6 12 11 9 9 9 3 18 20 11 4
8 5 16 12 8 23 10 9 6 15 15 19 21 20 10 19 5 5 7 14 24 21 14 12 10 7 8 6 4 6 7 7 7 7 6 4 4 4 4 2 1 5 4 3 2 2 5 12 15 12 11 11 7 15
3 9 8 11 9 18 23 9 8 9 15 20 22 19 13 12 13 5 6 5 8 11 13 18 26 30 25 17 14 10 9 7 3 3 3 6 7 9 8 8 6 7 10 3 3 2 2 1 0 0 7 16 13 11
16 14 10 4 16 7 23 21 15 7 17 15 22 18 15 11 13 12 10 7 6 8 7 8 8 6 4 6 7 12 21 29 40 37 33 30 31 29 26 21 14 10 6 6 0 4 5 5 5 4 3 1 2 13
-9 6 14 12 7 13 22 14 14 11 13 17 18 15 13 13 10 9 10 19 8 11 9 7 10 11 8 6 6 8 10 10 11 13 14 10 8 6 4 2 5 19 32 28 20 13 10 7 4 4 4 4 5 2
8 9 8 16 10 17 23 4 10 12 16 18 17 15 12 13 14 13 12 14 16 4 5 8 8 9 10 8 8 8 8 12 13 11 11 12 12 11 11 12 15 17 15 9 7 9 16 20 20 12 5 4 2 3
13 10 6 20 11 12 27 -1 11 12 12 19 16 14 13 13 13 16 17 13 12 11 12 10 9 9 7 7 7 6 10 7 6 6 7 10 11 10 9 10 13 15 15 14 15 18 17 15 12 10 13 18 19 24
-4 6 11 15 17 12 25 1 7 12 8 15 16 12 11 13 16 14 18 15 12 11 14 14 11 8 8 7 7 8 8 8 7 7 4 7 10 12 13 12 12 12 12 13 16 16 15 14 8 16 20 11 7 4
3 1 2 14 22 15 20 -2 6 13 11 11 17 14 12 14 15 17 17 16 14 10 11 11 10 10 8 8 9 9 8 9 5 6 9 8 7 9 10 10 12 13 13 13 13 14 15 14 13 14 13 7 13 19
-2 6 9 3 30 13 1 4 11 8 12 15 16 13 14 17 17 16 16 13 11 12 11 10 10 9 8 8 8 8 10 9 9 10 9 7 7 8 10 11 13 11 10 11 12 15 18 19 18 16 14 14 13 7
3 12 4 11 31 13 10 9 8 6 15 16 14 15 13 14 15 13 12 12 11 11 11 9 9 9 9 8 9 10 8 9 9 7 6 7 9 9 10 13 16 15 12 14 16 17 20 22 21 22 18 18 14 15
-1 -5 5 20 34 11 2 7 3 12 17 18 9 10 13 13 13 11 10 11 12 11 11 10 9 10 10 10 9 9 9 6 4 6 8 11 13 13 13 14 15 14 13 12 17 20 20 19 20 21 21 22 21 20
-10 2 23 44 13 5 5 5 3 16 14 11 11 12 14 13 12 11 12 12 12 13 12 10 10 9 8 8 9 6 5 7 7 6 13 15 14 13 11 10 11 16 21 26 23 24 24 23 24 26 26 24 23 22
36 45 26 7 9 6 11 4 9 18 16 12 10 10 13 13 13 12 13 12 11 9 9 8 8 8 8 7 4 5 8 13 16 16 14 12 10 9 15 19 23 37 30 32 27 24 20 28 34 31 32 28 25 26
33 16 1 6 3 15 7 3 10 14 15 16 14 14 13 12 14 12 8 10 10 8 8 9 7 5 5 5 7 13 15 12 12 11 7 11 18 24 37 33 29 19 23 33 37 28 37 43 41 38 33 28 21 25
13 13 11 3 14 9 3 4 10 17 17 12 12 13 14 12 10 9 8 9 11 11 7 6 6 6 8 12 13 12 13 12 9 9 16 26 35 34 16 14 31 48 28 30 40 39 36 30 35 26 16 14 30 47
Height
5609 5608 5607 5606 5605 5604 5603 5603 5605 5606 5606 5605 5603 5602 5602 5600 5598 5596 5596 5595 5595 5594 5591 5591 5591 5592 5595 5597 5598 5600 5602 5603 5605 5607 5608 5610 5611 5612 5614 5616 5617 5620 5621 5623 5624 5626 5628 5628 5629 5629 5629 5626 5625 5623
5597 5597 5596 5596 5595 5595 5594 5595 5596 5598 5597 5596 5595 5594 5593 5592 5590 5588 5585 5585 5584 5583 5584 5580 5580 5582 5584 5586 5590 5593 5596 5598 5600 5601 5603 5604 5606 5608 5610 5612 5614 5616 5617 5619 5621 5622 5623 5624 5625 5625 5624 5623 5622 5620
5586 5586 5586 5586 5586 5585 5585 5585 5587 5590 5589 5589 5588 5587 5584 5582 5579 5576 5573 5570 5569 5569 5569 5567 5569 5568 5571 5576 5579 5584 5587 5591 5594 5596 5597 5599 5601 5603 5605 5607 5609 5610 5612 5614 5615 5617 5619 5620 5621 5621 5620 5620 5619 5616
5576 5575 5575 5575 5576 5576 5577 5578 5580 5582 5583 5581 5579 5578 5576 5572 5569 5564 5559 5553 5550 5547 5546 5544 5544 5548 5554 5562 5570 5575 5579 5583 5587 5591 5592 5594 5596 5598 5600 5602 5603 5602 5605 5608 5610 5611 5614 5615 5616 5616 5616 5616 5615 5613
5567 5566 5565 5565 5566 5567 5569 5571 5572 5574 5574 5574 5571 5569 5566 5562 5556 5550 5541 5533 5524 5518 5511 5507 5511 5523 5536 5549 5560 5567 5572 5577 5581 5585 5588 5590 5591 5594 5595 5596 5595 5598 5600 5603 5605 5604 5608 5609 5610 5611 5611 5612 5611 5610
5560 5559 5557 5558 5558 5559 5561 5563 5566 5567 5566 5565 5564 5561 5557 5551 5544 5535 5523 5510 5494 5481 5477 5480 5490 5507 5527 5542 5552 5560 5567 5572 5577 5580 5583 5585 5587 5589 5591 5591 5590 5593 5594 5596 5598 5599 5602 5603 5604 5604 5605 5606 5606 5606
5555 5554 5553 5552 5552 5553 5555 5557 5559 5559 5559 5559 5557 5553 5549 5542 5533 5522 5507 5490 5477 5471 5474 5482 5494 5511 5527 5539 5549 5556 5563 5568 5572 5576 5579 5580 5582 5583 5586 5587 5586 5587 5589 5590 5590 5591 5593 5594 5596 5598 5599 5600 5600 5601
5553 5552 5551 5550 5549 5549 5550 5551 5553 5554 5553 5552 5550 5547 5542 5535 5526 5511 5497 5490 5486 5486 5487 5496 5505 5518 5528 5539 5547 5554 5560 5565 5568 5571 5574 5575 5579 5580 5581 5581 5581 5582 5582 5582 5583 5585 5586 5587 5589 5591 5593 5594 5594 5595
5549 5548 5548 5547 5546 5545 5546 5547 5548 5548 5547 5545 5544 5541 5536 5531 5521 5511 5508 5504 5503 5503 5502 5506 5514 5524 5532 5540 5547 5552 5557 5561 5565 5567 5569 5572 5574 5576 5576 5576 5576 5576 5576 5576 5577 5579 5581 5582 5584 5585 5586 5588 5589 5590
5542 5543 5543 5542 5541 5541 5541 5542 5542 5542 5541 5540 5539 5537 5532 5528 5520 5518 5520 5516 5514 5513 5516 5519 5523 5530 5536 5542 5547 5553 5556 5559 5561 5564 5564 5567 5569 5571 5571 5571 5571 5571 5570 5571 5572 5574 5576 5577 5578 5580 5581 5583 5585 5586
5533 5535 5536 5535 5536 5536 5536 5537 5537 5537 5536 5536 5535 5533 5530 5526 5525 5524 5526 5524 5522 5523 5524 5526 5531 5535 5539 5543 5547 5550 5552 5555 5557 5560 5560 5562 5564 5566 5567 5567 5566 5566 5566 5567 5568 5570 5571 5573 5574 5575 5576 5578 5579 5580
5523 5526 5528 5527 5528 5530 5532 5531 5532 5532 5531 5531 5531 5530 5529 5526 5527 5526 5527 5528 5528 5529 5530 5531 5534 5537 5540 5544 5547 5549 5550 5551 5553 5555 5556 5558 5560 5561 5562 5562 5562 5561 5562 5563 5564 5566 5567 5568 5569 5570 5572 5573 5574 5575
5512 5515 5518 5519 5519 5521 5522 5523 5524 5525 5525 5526 5527 5526 5527 5525 5526 5526 5528 5529 5530 5531 5533 5534 5536 5538 5541 5544 5546 5547 5548 5549 5551 5552 5553 5555 5556 5557 5557 5558 5558 5558 5557 5557 5559 5561 5562 5563 5564 5565 5566 5567 5568 5569
5503 5505 5508 5509 5511 5512 5512 5514 5516 5517 5519 5520 5520 5521 5521 5521 5522 5524 5525 5528 5529 5530 5532 5534 5536 5538 5539 5542 5544 5546 5548 5548 5549 5549 5550 5550 5551 5552 5553 5553 5554 5554 5553 5553 5554 5556 5558 5559 5559 5559 5560 5560 5562 5564
5495 5496 5498 5500 5502 5503 5504 5504 5507 5509 5512 5513 5514 5514 5515 5516 5517 5520 5521 5522 5526 5527 5529 5531 5533 5535 5537 5539 5541 5543 5545 5546 5546 5548 5548 5548 5549 5549 5550 5550 5550 5550 5550 5550 5549 5551 5553 5553 5554 5554 5555 5555 5556 5559
5488 5490 5491 5493 5494 5494 5495 5496 5498 5500 5502 5504 5506 5506 5507 5509 5511 5513 5516 5517 5520 5523 5524 5527 5529 5531 5533 5535 5538 5539 5541 5542 5544 5545 5546 5546 5546 5547 5547 5547 5547 5547 5546 5546 5546 5547 5547 5548 5549 5550 5551 5551 5551 5553
5483 5484 5484 5484 5485 5487 5488 5489 5489 5491 5493 5495 5497 5497 5500 5502 5503 5505 5508 5512 5513 5517 5519 5521 5524 5526 5528 5530 5533 5534 5536 5537 5538 5539 5541 5542 5543 5543 5543 5543 5543 5543 5543 5543 5543 5543 5543 5543 5543 5545 5546 5548 5549 5550
5477 5477 5477 5478 5478 5479 5480 5481 5482 5483 5485 5486 5488 5489 5492 5495 5497 5499 5501 5504 5507 5508 5511 5514 5517 5519 5522 5525 5527 5527 5528 5530 5532 5533 5534 5535 5537 5538 5538 5539 5539 5539 5539 5539 5539 5539 5539 5539 5539 5540 5540 5541 5542 5544
5469 5469 5471 5472 5471 5471 5472 5475 5475 5476 5477 5478 5479 5481 5484 5488 5490 5492 5495 5497 5500 5501 5503 5506 5508 5513 5516 5516 5517 5518 5521 5523 5524 5525 5526 5527 5528 5529 5530 5531 5532 5533 5533 5534 5534 5534 5534 5534 5535 5535 5535 5535 5536 5536
5461 5462 5464 5465 5464 5463 5464 5467 5468 5470 5470 5471 5472 5474 5477 5480 5483 5486 5489 5491 5493 5495 5496 5498 5501 5502 5503 5505 5508 5510 5512 5513 5514 5515 5516 5517 5518 5519 5520 5521 5522 5523 5524 5525 5525 5526 5527 5527 5528 5528 5529 5529 5529 5529
5453 5454 5455 5456 5457 5457 5457 5459 5461 5463 5463 5464 5465 5467 5470 5472 5475 5478 5481 5484 5487 5490 5491 5492 5493 5495 5497 5498 5500 5502 5502 5503 5503 5505 5506 5505 5506 5507 5507 5508 5509 5510 5511 5512 5514 5514 5516 5517 5518 5519 5520 5521 5521 5522
5446 5445 5446 5446 5449 5450 5451 5453 5454 5456 5457 5458 5459 5460 5462 5465 5468 5470 5473 5477 5480 5483 5485 5485 5487 5489 5490 5491 5492 5493 5494 5494 5494 5495 5495 5495 5495 5496 5496 5496 5496 5495 5496 5497 5499 5501 5501 5503 5505 5507 5509 5510 5511 5513
5435 5436 5436 5437 5439 5441 5447 5447 5448 5448 5449 5451 5452 5453 5455 5458 5460 5463 5465 5469 5473 5473 5475 5479 5480 5481 5482 5483 5484 5486 5486 5486 5486 5486 5486 5486 5486 5486 5485 5484 5484 5484 5484 5484 5485 5486 5487 5488 5490 5492 5494 5496 5498 5500
5426 5426 5426 5427 5429 5434 5439 5440 5441 5442 5443 5443 5445 5446 5447 5449 5451 5455 5459 5462 5462 5464 5467 5470 5472 5473 5474 5475 5476 5476 5477 5476 5476 5476 5475 5475 5475 5474 5473 5472 5472 5471 5472 5472 5471 5471 5472 5474 5475 5477 5478 5480 5482 5484
5413 5414 5415 5417 5422 5427 5430 5433 5434 5435 5436 5436 5437 5438 5440 5442 5445 5448 5451 5453 5454 5457 5460 5462 5463 5464 5465 5466 5466 5467 5467 5467 5466 5465 5464 5464 5463 5461 5460 5458 5457 5456 5456 5456 5456 5456 5456 5457 5458 5460 5462 5465 5467 5470
5399 5401 5404 5410 5414 5419 5423 5425 5427 5427 5428 5430 5431 5432 5433 5435 5437 5441 5443 5444 5446 5449 5451 5453 5454 5455 5456 5457 5457 5457 5457 5456 5455 5454 5451 5450 5449 5448 5447 5445 5442 5439 5438 5439 5439 5438 5438 5439 5440 5442 5445 5447 5449 5453
5386 5390 5398 5404 5407 5412 5414 5417 5419 5420 5422 5423 5424 5425 5427 5428 5431 5433 5434 5436 5438 5441 5442 5444 5445 5446 5446 5446 5446 5446 5445 5444 5443 5441 5438 5435 5433 5431 5430 5429 5426 5422 5420 5419 5419 5419 5419 5419 5420 5423 5425 5428 5431 5436
5378 5384 5392 5397 5399 5404 5405 5408 5411 5413 5414 5416 5418 5418 5420 5422 5424 5425 5427 5429 5431 5433 5434 5435 5435 5436 5436 5436 5436 5435 5434 5432 5430 5428 5425 5420 5416 5413 5411 5409 5406 5403 5401 5398 5397 5397 5397 5397 5399 5401 5404 5408 5412 5416
5368 5377 5383 5387 5392 5396 5400 5402 5404 5405 5407 5408 5410 5412 5414 5415 5416 5418 5420 5422 5423 5425 5426 5426 5426 5427 5427 5426 5424 5423 5421 5419 5416 5412 5408 5404 5398 5392 5389 5387 5384 5381 5379 5375 5372 5371 5371 5373 5374 5377 5381 5385 5390 5395
5361 5367 5372 5378 5384 5390 5393 5394 5396 5397 5399 5401 5403 5405 5407 5408 5409 5411 5413 5415 5416 5417 5417 5417 5418 5417 5416 5415 5412 5409 5406 5403 5399 5396 5391 5386 5381 5375 5369 5363 5360 5356 5353 5350 5347 5346 5346 5347 5349 5353 5357 5362 5368 5374
5347 5355 5364 5371 5378 5383 5386 5387 5388 5390 5392 5394 5396 5398 5400 5401 5403 5405 5406 5407 5408 5408 5408 5409 5408 5406 5404 5402 5399 5395 5390 5386 5381 5376 5371 5366 5360 5353 5346 5340 5335 5330 5327 5325 5323 5323 5323 5324 5326 5330 5334 5341 5347 5355
5339 5349 5357 5365 5372 5375 5378 5379 5381 5383 5385 5387 5390 5392 5393 5395 5397 5397 5397 5399 5400 5401 5401 5399 5397 5396 5393 5389 5386 5381 5376 5370 5363 5358 5351 5344 5337 5330 5323 5318 5313 5309 5306 5304 5302 5302 5302 5304 5307 5312 5319 5327 5335 5342
5338 5346 5353 5360 5364 5368 5370 5372 5374 5376 5379 5381 5383 5385 5387 5388 5389 5391 5391 5392 5393 5392 5391 5389 5387 5385 5381 5377 5372 5367 5361 5355 5348 5341 5332 5324 5317 5310 5305 5300 5295 5291 5289 5288 5288 5289 5291 5294 5299 5306 5313 5320 5326 5333